This is the latest recevied weather packets stored in our database for station/object N0FDH. If no packets are shown the sender has not sent any weather packets the latest 10 day(s).
| Time | Temp. | Humidity | Pressure | Rain* | Wind** | Luminosity | Snow |
|---|---|---|---|---|---|---|---|
| 1777645914 | 5° C | 49% | 1019 hPa | 0 mm | - | 300 W/m² | - |
| 1777645611 | 4.44° C | 49% | 1018.8 hPa | 0 mm | - | 302 W/m² | - |
| 1777645307 | 4.44° C | 49% | 1018.8 hPa | 0 mm | - | 160 W/m² | - |
| 1777645003 | 5° C | 49% | 1018.8 hPa | 0 mm | - | 67 W/m² | - |
| 1777644701 | 4.44° C | 50% | 1018.8 hPa | 0 mm | - | 56 W/m² | - |
| 1777644396 | 4.44° C | 51% | 1018.7 hPa | 0 mm | - | 145 W/m² | - |
| 1777644093 | 3.89° C | 54% | 1018.8 hPa | 0 mm | - | 217 W/m² | - |
| 1777643790 | 3.89° C | 53% | 1018.8 hPa | 0 mm | - | 232 W/m² | - |
| 1777643488 | 3.33° C | 55% | 1018.7 hPa | 0 mm | - | 163 W/m² | - |
| 1777643184 | 3.33° C | 55% | 1019.1 hPa | 0 mm | - | 160 W/m² | - |
| 1777642880 | 3.33° C | 56% | 1018.8 hPa | 0 mm | - | 132 W/m² | - |
| 1777642577 | 2.78° C | 56% | 1019.1 hPa | 0 mm | - | 98 W/m² | - |
| 1777642274 | 2.78° C | 56% | 1018.8 hPa | 0 mm | - | 125 W/m² | - |
| 1777641971 | 2.78° C | 57% | 1019 hPa | 0 mm | - | 74 W/m² | - |
| 1777641667 | 2.78° C | 57% | 1019.1 hPa | 0 mm | - | 77 W/m² | - |
| 1777641362 | 2.22° C | 60% | 1019 hPa | 0 mm | - | 91 W/m² | - |
| 1777641057 | 2.22° C | 60% | 1018.8 hPa | 0 mm | - | 45 W/m² | - |
| 1777640753 | 2.22° C | 61% | 1018.8 hPa | 0 mm | - | 45 W/m² | - |
| 1777640451 | 2.22° C | 62% | 1018.8 hPa | 0 mm | - | 52 W/m² | - |
| 1777640147 | 1.67° C | 63% | 1018.7 hPa | 0 mm | - | 58 W/m² | - |
| 1777639844 | 1.67° C | 63% | 1018.8 hPa | 0 mm | - | 52 W/m² | - |
| 1777639542 | 1.67° C | 65% | 1018.6 hPa | 0 mm | - | 59 W/m² | - |
| 1777639238 | 1.67° C | 65% | 1018.5 hPa | 0 mm | - | 51 W/m² | - |
| 1777638935 | 1.11° C | 65% | 1018.5 hPa | 0 mm | - | 35 W/m² | - |
| 1777638630 | 1.11° C | 66% | 1018.4 hPa | 0 mm | - | 41 W/m² | - |
* Rain latest hour (hover to see other rain measurements)
** Current wind speed in m/s (hover to see current wind gust speed)